DLH752 EDDF-VOHS

Flight info

Callsign DLH752
Flight time N/A
Altitude 31000
Route SULUS7S SULUS Z650 VEMUT/N0483F370 DCT BUDEX DCT TEKNO DCT TEGRI DCT UDROS DCT CRM DCT ROLIN N644 ODILI DCT LAGAS M747 BAGVA/N0482F390 M747 SUBUT T923 ERLEV M11 RODAR A909 TUNEK B143 KRS A240 INRAK B449 RANAH L750 MERUN L333 JJP V12 IKAVA Q23 PEDMA/N0480F400 Q28 BDR
Aircraft B789/H-SADFGHIJ1J2J3J4J5LOP1P2RWXYZ/LB1D1

Departure

Time N/A
Airport Frankfurt Main Airport (EDDF)

Arrival

Time 2026-04-11 07:24
Airport Rajiv Gandhi International Airport (VOHS)
Time Latitude Longitude Altitude Speed Heading
2026-04-11 07:05 17.63192 77.93292 18043 ft 341 kts 131°
2026-04-11 07:05 17.61617 77.95149 18014 ft 341 kts 131°
2026-04-11 07:06 17.60044 77.97005 18013 ft 340 kts 131°
2026-04-11 07:06 17.58471 77.98857 18015 ft 340 kts 131°
2026-04-11 07:06 17.56911 78.00695 18010 ft 331 kts 131°
2026-04-11 07:06 17.55445 78.02424 18006 ft 312 kts 131°
2026-04-11 07:07 17.54020 78.04101 18001 ft 297 kts 131°
2026-04-11 07:07 17.52680 78.05681 18010 ft 292 kts 131°
2026-04-11 07:07 17.51339 78.07262 17675 ft 291 kts 131°
2026-04-11 07:07 17.49986 78.08852 17253 ft 291 kts 131°
2026-04-11 07:08 17.48644 78.10427 16885 ft 289 kts 131°
2026-04-11 07:08 17.47315 78.11992 16492 ft 287 kts 131°
2026-04-11 07:08 17.45995 78.13548 16096 ft 284 kts 131°
2026-04-11 07:08 17.44682 78.15092 15654 ft 283 kts 130°
2026-04-11 07:09 17.43378 78.16624 15228 ft 282 kts 130°
2026-04-11 07:09 17.42078 78.18149 14842 ft 279 kts 130°
2026-04-11 07:09 17.40792 78.19660 14443 ft 277 kts 130°
2026-04-11 07:09 17.39516 78.21159 14032 ft 275 kts 130°
2026-04-11 07:10 17.36980 78.24140 13222 ft 273 kts 130°
2026-04-11 07:10 17.35719 78.25617 12837 ft 271 kts 130°
2026-04-11 07:10 17.34471 78.27080 12420 ft 269 kts 130°
2026-04-11 07:11 17.33230 78.28538 11977 ft 268 kts 130°
2026-04-11 07:11 17.31993 78.29991 11601 ft 266 kts 130°
2026-04-11 07:11 17.30765 78.31432 11227 ft 264 kts 130°
2026-04-11 07:11 17.29545 78.32862 10853 ft 262 kts 130°
2026-04-11 07:12 17.28335 78.34279 10507 ft 258 kts 130°
2026-04-11 07:12 17.27191 78.35619 10416 ft 241 kts 130°
2026-04-11 07:12 17.26071 78.36936 9957 ft 242 kts 131°
2026-04-11 07:12 17.24955 78.38241 9552 ft 240 kts 131°
2026-04-11 07:13 17.23848 78.39535 9273 ft 234 kts 131°
2026-04-11 07:13 17.22821 78.40916 9336 ft 262 kts 121°
2026-04-11 07:13 17.21804 78.42527 9276 ft 260 kts 124°
2026-04-11 07:13 17.20802 78.44035 9043 ft 246 kts 124°
2026-04-11 07:14 17.19840 78.45465 8793 ft 235 kts 124°
2026-04-11 07:14 17.18902 78.46858 8334 ft 235 kts 123°
2026-04-11 07:14 17.18089 78.48344 7860 ft 235 kts 115°
2026-04-11 07:14 17.17431 78.49908 7397 ft 234 kts 110°
2026-04-11 07:15 17.16989 78.51542 6979 ft 232 kts 102°
2026-04-11 07:15 17.16649 78.53170 6649 ft 227 kts 99°
2026-04-11 07:15 17.16489 78.54801 6321 ft 224 kts 92°
2026-04-11 07:15 17.16411 78.56399 6005 ft 216 kts 92°
2026-04-11 07:16 17.16348 78.57957 5674 ft 213 kts 91°
2026-04-11 07:16 17.16291 78.59491 5332 ft 210 kts 91°
2026-04-11 07:16 17.16235 78.60985 5045 ft 206 kts 91°
2026-04-11 07:16 17.16183 78.62472 4936 ft 204 kts 91°
2026-04-11 07:17 17.16126 78.63966 4869 ft 206 kts 92°
2026-04-11 07:17 17.16074 78.65466 4824 ft 206 kts 91°
2026-04-11 07:17 17.16087 78.66963 4820 ft 205 kts 83°
2026-04-11 07:17 17.16655 78.68306 4794 ft 205 kts 47°
2026-04-11 07:18 17.17832 78.69049 4796 ft 199 kts 17°
2026-04-11 07:18 17.19186 78.68996 4794 ft 196 kts 343°
2026-04-11 07:18 17.20446 78.68454 4831 ft 197 kts 336°
2026-04-11 07:18 17.21535 78.67601 4799 ft 197 kts 309°
2026-04-11 07:19 17.22299 78.66412 4820 ft 193 kts 303°
2026-04-11 07:19 17.22979 78.65272 4793 ft 179 kts 298°
2026-04-11 07:19 17.23092 78.64010 4785 ft 175 kts 264°
2026-04-11 07:19 17.23119 78.62732 4815 ft 176 kts 276°
2026-04-11 07:20 17.23123 78.61439 4819 ft 178 kts 270°
2026-04-11 07:20 17.23111 78.60147 4781 ft 177 kts 270°
2026-04-11 07:20 17.23091 78.58887 4566 ft 166 kts 269°
2026-04-11 07:20 17.23078 78.57701 4347 ft 162 kts 270°
2026-04-11 07:21 17.23065 78.56528 4138 ft 159 kts 270°
2026-04-11 07:21 17.23048 78.55374 3918 ft 159 kts 269°
2026-04-11 07:21 17.23033 78.54216 3717 ft 159 kts 269°
2026-04-11 07:21 17.23017 78.53067 3503 ft 158 kts 269°
2026-04-11 07:22 17.23003 78.51917 3293 ft 158 kts 269°
2026-04-11 07:22 17.22987 78.50774 3098 ft 156 kts 266°
2026-04-11 07:22 17.22961 78.49636 2903 ft 155 kts 270°
2026-04-11 07:22 17.22954 78.48497 2664 ft 158 kts 269°
2026-04-11 07:23 17.22935 78.47361 2441 ft 155 kts 269°
2026-04-11 07:23 17.22914 78.46242 2216 ft 155 kts 269°
2026-04-11 07:23 17.22903 78.45119 2036 ft 154 kts 269°
2026-04-11 07:23 17.22891 78.44141 1999 ft 99 kts 270°
2026-04-11 07:24 17.22887 78.43647 2001 ft 56 kts 269°
2026-04-11 07:24 17.22882 78.43261 2003 ft 50 kts 269°
2026-04-11 07:24 17.22879 78.42914 2001 ft 46 kts 269°
2026-04-11 07:24 17.22906 78.42617 1998 ft 37 kts 295°
2026-04-11 07:25 17.22990 78.42462 2000 ft 0 kts 301°
2026-04-11 07:25 17.22992 78.42459 2000 ft 2 kts 301°
2026-04-11 07:25 17.22994 78.42456 2000 ft 0 kts 301°
2026-04-11 07:26 17.23007 78.42434 2000 ft 8 kts 301°
2026-04-11 07:26 17.23046 78.42355 2000 ft 16 kts 293°
2026-04-11 07:26 17.23108 78.42253 2003 ft 16 kts 332°
2026-04-11 07:27 17.23211 78.42246 2004 ft 15 kts 18°
2026-04-11 07:27 17.23308 78.42263 2004 ft 13 kts 32°
2026-04-11 07:27 17.23367 78.42340 2004 ft 14 kts 59°
2026-04-11 07:27 17.23403 78.42403 2004 ft 2 kts 61°
2026-04-11 07:28 17.23412 78.42418 2003 ft 3 kts 57°
2026-04-11 07:28 17.23419 78.42429 2004 ft 1 kts 56°
2026-04-11 07:28 17.23422 78.42434 2004 ft 0 kts 55°
2026-04-11 07:28 17.23425 78.42438 2004 ft 0 kts 55°